sat.trackr.live / text

‹ back to catalog

STARLINK-35270

NORAD 65882 · 2025-224A

PAYLOAD ACTIVE UNKNOWN

§ Identity

Operator
Country
US
Launch date
2025-10-07
Launch site
AFETR
Launch vehicle
Mass (kg)
RCS (m²)

Purposes: comms

External: N2YO · Heavens-Above · Gunter

§ Orbital elements

Epoch: 2026-09-20T01:11:14.965728Z

Period
93.85 min
Inclination
53.1582°
Eccentricity
0.0001441
Mean motion
15.34401861 rev/d
Perigee alt
461.7 km
Apogee alt
463.7 km
Semi-major
6,840.8 km
B*
5.8305e-4
RAAN
184.1796°
Arg perigee
92.4349°
Mean anomaly
267.6819°
Rev number
5,464

§ Raw data

STARLINK-352701 65882U 25224A   26263.04947877  .00019375  00000+0  58305-3 0  99972 65882  53.1582 184.1796 0001441  92.4349 267.6819 15.34401861 54643

JSON: /api/v1/satellites/65882 · /tle

For live sub-satellite position, see the globe view (requires WebGL).

§ Visibility from observer

Set your observer location to see the next 7 days of passes ≥ 10°. The values pass through the URL so the page stays shareable.

No JS? Fill the form by hand. The geolocation button needs JavaScript.